Location: Aldenham
(51.6667°N, 0.3500°W)
Time: 12:08:02
(UTC+00:00)

Transit 4A - All Passes

Search period start: 16 February 2026 00:00
Search period end: 26 February 2026 00:00
Orbit: 865 x 976 km, 66.8° (Epoch: 16 February)

Date Brightness Start Highest point End Pass type
(mag) Time Alt. Az. Time Alt. Az. Time Alt. Az.
16 Feb - 03:41:06 10° S 03:46:22 35° ESE 03:51:46 10° NE visible
16 Feb - 05:26:38 10° SW 05:32:27 58° NW 05:38:28 10° NE visible
16 Feb - 07:15:17 10° WNW 07:20:04 24° NNW 07:24:58 10° NNE daylight
16 Feb - 09:04:10 10° NW 09:08:34 20° N 09:13:03 10° NE daylight
16 Feb - 10:51:07 10° NNW 10:56:45 35° NNE 11:02:29 10° E daylight
16 Feb - 12:37:25 10° NW 12:43:39 77° SW 12:49:59 10° SSE daylight
16 Feb - 14:25:07 10° WNW 14:29:03 18° WSW 14:33:03 10° SW daylight
17 Feb - 03:49:19 10° S 03:54:57 49° ESE 04:00:44 10° NE visible
17 Feb - 05:35:42 10° WSW 05:41:22 46° NW 05:47:14 10° NNE visible
17 Feb - 07:24:41 10° WNW 07:29:14 22° NNW 07:33:55 10° NE daylight
17 Feb - 09:13:12 10° NW 09:17:48 21° NNE 09:22:28 10° ENE daylight
17 Feb - 10:59:52 10° NNW 11:05:45 43° NE 11:11:45 10° ESE daylight
17 Feb - 12:46:14 10° NW 12:52:20 58° WSW 12:58:32 10° SSE daylight
17 Feb - 14:35:12 10° W 14:37:27 12° W 14:39:42 10° WSW daylight
18 Feb - 02:15:38 10° SE 02:18:26 14° ESE 02:21:16 10° ENE visible
18 Feb - 03:57:46 10° SSW 04:03:36 67° ESE 04:09:37 10° NE visible
18 Feb - 05:44:52 10° WSW 05:50:21 37° NW 05:56:00 10° NNE visible
18 Feb - 07:34:04 10° NW 07:38:28 20° N 07:42:57 10° NE daylight
18 Feb - 09:22:09 10° NNW 09:26:59 23° NNE 09:31:56 10° ENE daylight
18 Feb - 11:08:37 10° NW 11:14:42 54° NE 11:20:53 10° ESE daylight
18 Feb - 12:55:09 10° NW 13:00:59 42° WSW 13:06:54 10° S daylight
19 Feb - 02:22:43 10° SSE 02:26:49 20° ESE 02:31:00 10° ENE visible
19 Feb - 04:06:25 10° SW 04:12:19 89° SE 04:18:26 10° NE visible
19 Feb - 05:54:09 10° W 05:59:24 31° NNW 06:04:48 10° NNE visible
19 Feb - 07:43:23 10° NW 07:47:42 20° N 07:52:06 10° NE daylight
19 Feb - 09:31:00 10° NNW 09:36:09 27° NNE 09:41:23 10° E daylight
19 Feb - 11:17:21 10° NW 11:23:34 69° NE 11:29:54 10° SE daylight
19 Feb - 13:04:09 10° NW 13:09:33 31° WSW 13:15:01 10° S daylight
20 Feb - 02:30:24 10° SSE 02:35:17 28° ESE 02:40:17 10° NE visible
20 Feb - 04:15:13 10° SW 04:21:07 71° NW 04:27:13 10° NE visible
20 Feb - 06:03:30 10° W 06:08:30 26° NNW 06:13:38 10° NNE visible
20 Feb - 07:52:36 10° NW 07:56:57 20° N 08:01:22 10° NE daylight
20 Feb - 09:39:49 10° NNW 09:45:15 31° NNE 09:50:48 10° E daylight
20 Feb - 11:26:07 10° NW 11:32:24 88° NE 11:38:46 10° SE daylight
20 Feb - 13:13:20 10° WNW 13:18:03 23° WSW 13:22:49 10° SSW daylight
21 Feb - 02:38:26 10° S 02:43:48 38° ESE 02:49:20 10° NE visible
21 Feb - 04:24:11 10° WSW 04:29:59 55° NW 04:35:59 10° NE visible
21 Feb - 06:12:55 10° WNW 06:17:40 23° NNW 06:22:31 10° NE visible
21 Feb - 08:01:43 10° NW 08:06:11 20° N 08:10:44 10° NE daylight
21 Feb - 09:48:36 10° NNW 09:54:19 37° NE 10:00:08 10° E daylight
21 Feb - 11:34:55 10° NW 11:41:09 72° WSW 11:47:28 10° SSE daylight
21 Feb - 13:22:50 10° WNW 13:26:29 16° WSW 13:30:10 10° SW daylight
22 Feb - 02:46:43 10° SSW 02:52:24 53° ESE 02:58:17 10° NE visible
22 Feb - 04:33:16 10° WSW 04:38:54 43° NW 04:44:45 10° NNE visible
22 Feb - 06:22:19 10° WNW 06:26:51 21° NNW 06:31:29 10° NE visible
22 Feb - 08:10:44 10° NW 08:15:25 22° NNE 08:20:10 10° ENE daylight
22 Feb - 09:57:21 10° NNW 10:03:18 45° NE 10:09:22 10° ESE daylight
22 Feb - 11:43:46 10° NW 11:49:49 54° WSW 11:55:58 10° SSE daylight
22 Feb - 13:33:22 10° W 13:34:51 11° W 13:36:19 10° WSW daylight
23 Feb - 01:12:36 10° SE 01:15:49 15° ESE 01:19:05 10° ENE visible
23 Feb - 02:55:13 10° SSW 03:01:05 72° ESE 03:07:08 10° NE visible
23 Feb - 04:42:29 10° W 04:47:55 35° NNW 04:53:31 10° NNE visible
23 Feb - 06:31:41 10° NW 06:36:05 20° N 06:40:34 10° NE daylight
23 Feb - 08:19:40 10° NNW 08:24:35 24° NNE 08:29:37 10° ENE daylight
23 Feb - 10:06:06 10° NW 10:12:14 57° NE 10:18:29 10° ESE daylight
23 Feb - 11:52:42 10° NW 11:58:26 39° WSW 12:04:16 10° S daylight
24 Feb - 01:19:53 10° SSE 01:24:13 22° ESE 01:28:40 10° ENE visible
24 Feb - 03:03:53 10° SW 03:09:49 86° NW 03:15:57 10° NE visible
24 Feb - 04:51:47 10° W 04:56:59 30° NNW 05:02:19 10° NNE visible
24 Feb - 06:40:59 10° NW 06:45:19 20° N 06:49:44 10° NE daylight
24 Feb - 08:28:30 10° NNW 08:33:44 28° NNE 08:39:03 10° E daylight
24 Feb - 10:14:51 10° NW 10:21:06 73° NE 10:27:27 10° SE daylight
24 Feb - 12:01:44 10° NW 12:06:59 29° WSW 12:12:19 10° SSW daylight
25 Feb - 01:27:40 10° S 01:32:42 30° ESE 01:37:52 10° NE visible
25 Feb - 03:12:43 10° SW 03:18:37 66° NW 03:24:43 10° NE visible
25 Feb - 05:01:08 10° WNW 05:06:05 26° NNW 05:11:10 10° NNE visible
25 Feb - 06:50:11 10° NW 06:54:34 20° N 06:59:01 10° NE daylight
25 Feb - 08:37:19 10° NNW 08:42:50 32° NNE 08:48:27 10° E daylight
25 Feb - 10:23:37 10° NW 10:29:54 87° SW 10:36:17 10° SE daylight
25 Feb - 12:10:58 10° WNW 12:15:29 21° WSW 12:20:02 10° SSW daylight
